Tracking 21473 objects as of 26-Sep-2020
HD Live streaming from Space Station
objects crossing your sky now

DELTA 1 DEB

Track DELTA 1 DEB now!
10-day predictions


NORAD ID: 37639
Int'l Code: 1978-026JA
Perigee: 875.0 km
Apogee: 1,045.4 km
Inclination: 98.7 °
Period: 104.1 minutes
Semi major axis: 7331 km
RCS: 0.0118 m2 (small)
Launch date: March 5, 1978
Source: United States (US)
Launch site: AIR FORCE WESTERN TEST RANGE (AFWTR)

Note: This is SATELLITE DEBRIS
aabbcc
Your satellite tracking list
Your tracking list is empty




NASA's NSSDC Master Catalog

Two Line Element Set (TLE):
1 37639U 78026JA  20269.84656344 +.00000049 +00000-0 +77910-4 0  9991
2 37639 098.7431 272.3945 0116175 286.7930 194.2910 13.83059715421353
Source of the keplerian elements: AFSPC